,,,PA_Meas_PMT16A,,PR_Meas_QMR101_102,,RH_Meas_QMH101,,SR_Meas_QMS101,,TA_Meas_QMH101,,GenWind,,GenWind,
date,time,status,PA,status,PR,status,RH,status,SR,status,TA,status,DirAvg,status,SpdAvg,
2010-07-10, 00:00:05,VALID,1010.69,VALID,0,VALID,102.376,VALID,0,VALID,22.5039,VALID,46,VALID,0.18125,
2010-07-10, 00:01:05,VALID,1010.68,VALID,0,VALID,102.421,VALID,0,VALID,22.5251,VALID,46,VALID,0.175391,
2010-07-10, 00:02:05,VALID,1010.68,VALID,0,VALID,102.421,VALID,0.105969,VALID,22.5056,VALID,46,VALID,0.0328125,
2010-07-10, 00:03:05,VALID,1010.7,VALID,0,VALID,102.383,VALID,0,VALID,22.5056,VALID,46,VALID,0,
2010-07-10, 00:04:05,VALID,1010.7,VALID,0,VALID,102.399,VALID,0,VALID,22.4861,VALID,46,VALID,0,
2010-07-10, 00:05:05,VALID,1010.72,VALID,0,VALID,102.421,VALID,0,VALID,22.4667,VALID,46,VALID,0,
2010-07-10, 00:06:05,VALID,1010.72,VALID,0,VALID,102.406,VALID,0,VALID,22.4667,VALID,46,VALID,0,
2010-07-10, 00:07:05,VALID,1010.75,VALID,0,VALID,102.383,VALID,0,VALID,22.4455,VALID,46,VALID,0,
2010-07-10, 00:08:05,VALID,1010.73,VALID,0,VALID,102.399,VALID,0,VALID,22.4472,VALID,46,VALID,0,
2010-07-10, 00:09:05,VALID,1010.74,VALID,0,VALID,102.36,VALID,0,VALID,22.4684,VALID,46,VALID,0,
2010-07-10, 00:10:05,VALID,1010.73,VALID,0,VALID,102.383,VALID,0,VALID,22.4472,VALID,46,VALID,0,
2010-07-10, 00:11:05,VALID,1010.71,VALID,0,VALID,102.376,VALID,0,VALID,22.4277,VALID,46,VALID,0,
2010-07-10, 00:12:05,VALID,1010.69,VALID,0,VALID,102.36,VALID,0,VALID,22.4277,VALID,46,VALID,0,
2010-07-10, 00:13:05,VALID,1010.66,VALID,0,VALID,102.353,VALID,0,VALID,22.4277,VALID,46,VALID,0,
2010-07-10, 00:14:05,VALID,1010.64,VALID,0,VALID,102.33,VALID,0,VALID,22.4277,VALID,46,VALID,0,
2010-07-10, 00:15:05,VALID,1010.61,VALID,0,VALID,102.322,VALID,0,VALID,22.4277,VALID,46,VALID,0,
2010-07-10, 00:16:05,VALID,1010.58,VALID,0,VALID,102.33,VALID,0,VALID,22.4082,VALID,46,VALID,0,
2010-07-10, 00:17:05,VALID,1010.59,VALID,0,VALID,102.33,VALID,0,VALID,22.4082,VALID,46,VALID,0,
2010-07-10, 00:18:05,VALID,1010.56,VALID,0,VALID,102.33,VALID,0,VALID,22.4082,VALID,46,VALID,0,
2010-07-10, 00:19:05,VALID,1010.56,VALID,0,VALID,102.307,VALID,0.105969,VALID,22.4065,VALID,46,VALID,0,
2010-07-10, 00:20:05,VALID,1010.55,VALID,0,VALID,102.292,VALID,0.105969,VALID,22.426,VALID,46,VALID,0,
2010-07-10, 00:21:05,VALID,1010.55,VALID,0,VALID,102.299,VALID,0.105969,VALID,22.4065,VALID,46,VALID,0,
2010-07-10, 00:22:05,VALID,1010.57,VALID,0,VALID,102.299,VALID,0.105969,VALID,22.4065,VALID,46,VALID,0,
2010-07-10, 00:23:05,VALID,1010.56,VALID,0,VALID,102.284,VALID,0.105969,VALID,22.4065,VALID,46,VALID,0,
2010-07-10, 00:24:05,VALID,1010.54,VALID,0,VALID,102.277,VALID,0.105969,VALID,22.4065,VALID,46,VALID,0,
2010-07-10, 00:25:05,VALID,1010.51,VALID,0,VALID,102.269,VALID,0.105969,VALID,22.4065,VALID,46,VALID,0,
2010-07-10, 00:26:05,VALID,1010.48,VALID,0,VALID,102.238,VALID,0.105969,VALID,22.4065,VALID,46,VALID,0,
2010-07-10, 00:27:05,VALID,1010.45,VALID,0,VALID,102.246,VALID,0.105969,VALID,22.426,VALID,126,VALID,0.584375,
2010-07-10, 00:28:05,VALID,1010.43,VALID,0,VALID,102.223,VALID,0,VALID,22.4455,VALID,120,VALID,0.63125,
2010-07-10, 00:29:05,VALID,1010.4,VALID,0,VALID,102.231,VALID,0.105969,VALID,22.4455,VALID,121,VALID,0.557813,
2010-07-10, 00:30:05,VALID,1010.36,VALID,0,VALID,102.238,VALID,0,VALID,22.4455,VALID,104,VALID,0.221484,
2010-07-10, 00:31:05,VALID,1010.34,VALID,0,VALID,102.246,VALID,0.105969,VALID,22.465,VALID,104,VALID,0.221484,
2010-07-10, 00:32:05,VALID,1010.34,VALID,0,VALID,102.269,VALID,0.105969,VALID,22.4667,VALID,104,VALID,0.426172,
2010-07-10, 00:33:05,VALID,1010.3,VALID,0,VALID,102.284,VALID,0.105969,VALID,22.465,VALID,104,VALID,0.0640625,
2010-07-10, 00:34:05,VALID,1010.28,VALID,0,VALID,102.292,VALID,0.105969,VALID,22.4455,VALID,104,VALID,0.481641,
2010-07-10, 00:35:05,VALID,1010.28,VALID,0,VALID,102.322,VALID,0.105969,VALID,22.4455,VALID,104,VALID,0.277734,
2010-07-10, 00:36:05,VALID,1010.28,VALID,0,VALID,102.292,VALID,0.105969,VALID,22.4667,VALID,71,VALID,0.46875,
2010-07-10, 00:37:05,VALID,1010.32,VALID,0,VALID,102.315,VALID,0.105969,VALID,22.465,VALID,62,VALID,0.440234,
2010-07-10, 00:38:05,VALID,1010.28,VALID,0,VALID,102.284,VALID,0.105969,VALID,22.465,VALID,60,VALID,0.601172,
2010-07-10, 00:39:05,VALID,1010.28,VALID,0,VALID,102.315,VALID,0.105969,VALID,22.4455,VALID,60,VALID,0.540625,
2010-07-10, 00:40:05,VALID,1010.3,VALID,0,VALID,102.322,VALID,0.105969,VALID,22.4455,VALID,60,VALID,0.366406,
2010-07-10, 00:41:05,VALID,1010.27,VALID,0,VALID,102.33,VALID,0,VALID,22.426,VALID,60,VALID,0.463672,
2010-07-10, 00:42:05,VALID,1010.28,VALID,0,VALID,102.345,VALID,0.105969,VALID,22.4065,VALID,48,VALID,0.433203,
2010-07-10, 00:43:05,VALID,1010.27,VALID,0,VALID,102.33,VALID,0.105969,VALID,22.4065,VALID,29,VALID,0.274219,
2010-07-10, 00:44:05,VALID,1010.27,VALID,0,VALID,102.345,VALID,0.105969,VALID,22.4277,VALID,24,VALID,0.169141,
2010-07-10, 00:45:05,VALID,1010.29,VALID,0,VALID,102.353,VALID,0.105969,VALID,22.387,VALID,24,VALID,0.184766,
2010-07-10, 00:46:05,VALID,1010.28,VALID,0,VALID,102.33,VALID,0.105969,VALID,22.387,VALID,24,VALID,0.05,
2010-07-10, 00:47:05,VALID,1010.27,VALID,0,VALID,102.345,VALID,0.105969,VALID,22.3887,VALID,24,VALID,0.153516,
2010-07-10, 00:48:05,VALID,1010.26,VALID,0,VALID,102.36,VALID,0,VALID,22.3481,VALID,24,VALID,0.143359,
2010-07-10, 00:49:05,VALID,1010.24,VALID,0,VALID,102.338,VALID,0.105969,VALID,22.3498,VALID,24,VALID,0.297266,
2010-07-10, 00:50:05,VALID,1010.23,VALID,0,VALID,102.33,VALID,0.105969,VALID,22.3286,VALID,24,VALID,0,
2010-07-10, 00:51:05,VALID,1010.2,VALID,0,VALID,102.338,VALID,0,VALID,22.3303,VALID,24,VALID,0,
2010-07-10, 00:52:05,VALID,1010.2,VALID,0,VALID,102.299,VALID,0.105969,VALID,22.3286,VALID,24,VALID,0,
2010-07-10, 00:53:05,VALID,1010.17,VALID,0,VALID,102.277,VALID,0.105969,VALID,22.3481,VALID,80,VALID,0.262891,
2010-07-10, 00:54:05,VALID,1010.19,VALID,0,VALID,102.246,VALID,0,VALID,22.3676,VALID,108,VALID,0.494922,
2010-07-10, 00:55:05,VALID,1010.18,VALID,0,VALID,102.223,VALID,0.105969,VALID,22.3693,VALID,108,VALID,0.263672,
2010-07-10, 00:56:05,VALID,1010.19,VALID,0,VALID,102.238,VALID,0.105969,VALID,22.3887,VALID,108,VALID,0.440234,
2010-07-10, 00:57:05,VALID,1010.22,VALID,0,VALID,102.231,VALID,0.105969,VALID,22.4082,VALID,94,VALID,0.651563,
2010-07-10, 00:58:05,VALID,1010.21,VALID,0,VALID,102.231,VALID,0.105969,VALID,22.3887,VALID,105,VALID,0.515625,
2010-07-10, 00:59:05,VALID,1010.2,VALID,0,VALID,102.223,VALID,0.105969,VALID,22.4277,VALID,95,VALID,0.635156,
2010-07-10, 01:00:05,VALID,1010.18,VALID,0,VALID,102.254,VALID,0.105969,VALID,22.4472,VALID,69,VALID,0.372656,
2010-07-10, 01:01:05,VALID,1010.18,VALID,0,VALID,102.261,VALID,0.105969,VALID,22.4065,VALID,69,VALID,0.413672,
2010-07-10, 01:02:05,VALID,1010.16,VALID,0,VALID,102.254,VALID,0.105969,VALID,22.4472,VALID,69,VALID,0.507813,
2010-07-10, 01:03:05,VALID,1010.13,VALID,0,VALID,102.254,VALID,0.105969,VALID,22.4277,VALID,93,VALID,0.758984,
2010-07-10, 01:04:05,VALID,1010.15,VALID,0,VALID,102.261,VALID,0.105969,VALID,22.4472,VALID,92,VALID,0.334375,
2010-07-10, 01:05:05,VALID,1010.09,VALID,0,VALID,102.284,VALID,0.105969,VALID,22.4277,VALID,92,VALID,0.508984,
2010-07-10, 01:06:05,VALID,1010.09,VALID,0,VALID,102.277,VALID,0.105969,VALID,22.4472,VALID,92,VALID,0.424609,
2010-07-10, 01:07:05,VALID,1010.07,VALID,0,VALID,102.277,VALID,0.105969,VALID,22.4472,VALID,90,VALID,0.403125,
2010-07-10, 01:08:05,VALID,1010.06,VALID,0,VALID,102.277,VALID,0.105969,VALID,22.4277,VALID,119,VALID,0.345703,
2010-07-10, 01:09:05,VALID,1010.06,VALID,0,VALID,102.269,VALID,0.105969,VALID,22.426,VALID,116,VALID,0.431641,
2010-07-10, 01:10:05,VALID,1010.07,VALID,0,VALID,102.261,VALID,0.105969,VALID,22.4472,VALID,116,VALID,0.150391,
2010-07-10, 01:11:05,VALID,1010.08,VALID,0,VALID,102.284,VALID,0.105969,VALID,22.426,VALID,116,VALID,0.185156,
2010-07-10, 01:12:05,VALID,1010.07,VALID,0,VALID,102.292,VALID,0.105969,VALID,22.4472,VALID,116,VALID,0.267578,
2010-07-10, 01:13:05,VALID,1010.09,VALID,0,VALID,102.322,VALID,0.105969,VALID,22.4065,VALID,116,VALID,0.276953,
2010-07-10, 01:14:05,VALID,1010.09,VALID,0,VALID,102.299,VALID,0.105969,VALID,22.387,VALID,125,VALID,0.384375,
2010-07-10, 01:15:05,VALID,1010.09,VALID,0,VALID,102.307,VALID,0.105969,VALID,22.387,VALID,125,VALID,0.351172,
2010-07-10, 01:16:05,VALID,1010.08,VALID,0,VALID,102.322,VALID,0.105969,VALID,22.3676,VALID,125,VALID,0.232422,
2010-07-10, 01:17:05,VALID,1010.06,VALID,0,VALID,102.299,VALID,0.105969,VALID,22.387,VALID,125,VALID,0,
2010-07-10, 01:18:05,VALID,1010.06,VALID,0,VALID,102.269,VALID,0.105969,VALID,22.3887,VALID,125,VALID,0,
2010-07-10, 01:19:05,VALID,1010.07,VALID,0,VALID,102.269,VALID,0.105969,VALID,22.3676,VALID,125,VALID,0,
2010-07-10, 01:20:05,VALID,1010.06,VALID,0,VALID,102.269,VALID,0.105969,VALID,22.3676,VALID,125,VALID,0,
2010-07-10, 01:21:05,VALID,1010.08,VALID,0,VALID,102.254,VALID,0.105969,VALID,22.3887,VALID,125,VALID,0,
2010-07-10, 01:22:05,VALID,1010.11,VALID,0,VALID,102.223,VALID,0,VALID,22.3676,VALID,125,VALID,0,
2010-07-10, 01:23:05,VALID,1010.12,VALID,0,VALID,102.231,VALID,0.105969,VALID,22.4082,VALID,125,VALID,0,
2010-07-10, 01:24:05,VALID,1010.16,VALID,0,VALID,102.254,VALID,0.105969,VALID,22.4082,VALID,125,VALID,0.315234,
2010-07-10, 01:25:05,VALID,1010.15,VALID,0,VALID,102.246,VALID,0,VALID,22.3887,VALID,125,VALID,0.153906,
2010-07-10, 01:26:05,VALID,1010.13,VALID,0,VALID,102.254,VALID,0.105969,VALID,22.3676,VALID,125,VALID,0.0527344,
2010-07-10, 01:27:05,VALID,1010.11,VALID,0,VALID,102.246,VALID,0.105969,VALID,22.3676,VALID,125,VALID,0.109766,
2010-07-10, 01:28:05,VALID,1010.12,VALID,0,VALID,102.246,VALID,0.105969,VALID,22.3676,VALID,125,VALID,0,
2010-07-10, 01:29:05,VALID,1010.08,VALID,0,VALID,102.246,VALID,0,VALID,22.3676,VALID,125,VALID,0,
2010-07-10, 01:30:05,VALID,1010.05,VALID,0,VALID,102.261,VALID,0.105969,VALID,22.3676,VALID,125,VALID,0,
2010-07-10, 01:31:05,VALID,1009.99,VALID,0,VALID,102.223,VALID,0.105969,VALID,22.3676,VALID,125,VALID,0,
2010-07-10, 01:32:05,VALID,1009.98,VALID,0,VALID,102.254,VALID,0.105969,VALID,22.3887,VALID,125,VALID,0,
2010-07-10, 01:33:05,VALID,1009.94,VALID,0,VALID,102.254,VALID,0.105969,VALID,22.3676,VALID,125,VALID,0,
2010-07-10, 01:34:05,VALID,1009.93,VALID,0,VALID,102.238,VALID,0,VALID,22.3693,VALID,125,VALID,0,
2010-07-10, 01:35:05,VALID,1009.95,VALID,0,VALID,102.216,VALID,0,VALID,22.3904,VALID,125,VALID,0,
2010-07-10, 01:36:05,VALID,1009.94,VALID,0,VALID,102.223,VALID,0,VALID,22.3887,VALID,125,VALID,0,
2010-07-10, 01:37:05,VALID,1009.96,VALID,0,VALID,102.193,VALID,0,VALID,22.3887,VALID,125,VALID,0,
2010-07-10, 01:38:05,VALID,1009.94,VALID,0,VALID,102.193,VALID,0,VALID,22.3676,VALID,119,VALID,0.141797,
2010-07-10, 01:39:05,VALID,1009.94,VALID,0,VALID,102.185,VALID,0,VALID,22.3887,VALID,119,VALID,0.321094,
2010-07-10, 01:40:05,VALID,1009.98,VALID,0,VALID,102.2,VALID,0,VALID,22.3887,VALID,119,VALID,0.194141,
2010-07-10, 01:41:05,VALID,1009.96,VALID,0,VALID,102.193,VALID,0,VALID,22.3693,VALID,119,VALID,0.1625,
2010-07-10, 01:42:05,VALID,1009.96,VALID,0,VALID,102.185,VALID,0,VALID,22.3887,VALID,119,VALID,0.167578,
2010-07-10, 01:43:05,VALID,1009.97,VALID,0,VALID,102.208,VALID,0,VALID,22.3887,VALID,119,VALID,0.0976563,
2010-07-10, 01:44:05,VALID,1009.97,VALID,0,VALID,102.17,VALID,0,VALID,22.3887,VALID,119,VALID,0,
2010-07-10, 01:45:05,VALID,1009.95,VALID,0,VALID,102.193,VALID,0,VALID,22.3887,VALID,119,VALID,0,
2010-07-10, 01:46:05,VALID,1009.97,VALID,0,VALID,102.177,VALID,0,VALID,22.4082,VALID,119,VALID,0,
2010-07-10, 01:47:05,VALID,1009.97,VALID,0,VALID,102.17,VALID,0,VALID,22.4082,VALID,119,VALID,0,
2010-07-10, 01:48:05,VALID,1009.97,VALID,0,VALID,102.162,VALID,0,VALID,22.4082,VALID,119,VALID,0.00195313,
2010-07-10, 01:49:05,VALID,1009.95,VALID,0,VALID,102.132,VALID,0,VALID,22.4082,VALID,119,VALID,0.358984,
2010-07-10, 01:50:05,VALID,1009.96,VALID,0,VALID,102.124,VALID,0,VALID,22.4684,VALID,119,VALID,0.275781,
2010-07-10, 01:51:05,VALID,1009.94,VALID,0,VALID,102.116,VALID,0,VALID,22.4472,VALID,72,VALID,0.290234,
2010-07-10, 01:52:05,VALID,1009.94,VALID,0,VALID,102.109,VALID,0,VALID,22.4667,VALID,72,VALID,0,
2010-07-10, 01:53:05,VALID,1009.96,VALID,0,VALID,102.132,VALID,0,VALID,22.4667,VALID,68,VALID,0,
2010-07-10, 01:54:05,VALID,1009.97,VALID,0,VALID,102.116,VALID,0,VALID,22.4861,VALID,66,VALID,0,
2010-07-10, 01:55:05,VALID,1009.97,VALID,0,VALID,102.124,VALID,0,VALID,22.4861,VALID,66,VALID,0,
2010-07-10, 01:56:05,VALID,1009.96,VALID,0,VALID,102.139,VALID,0,VALID,22.4861,VALID,66,VALID,0,
2010-07-10, 01:57:05,VALID,1009.96,VALID,0,VALID,102.155,VALID,0,VALID,22.4861,VALID,66,VALID,0,
2010-07-10, 01:58:05,VALID,1009.9,VALID,0,VALID,102.155,VALID,0,VALID,22.465,VALID,66,VALID,0,
2010-07-10, 01:59:05,VALID,1009.9,VALID,0,VALID,102.17,VALID,0,VALID,22.4667,VALID,66,VALID,0,
2010-07-10, 02:00:05,VALID,1009.85,VALID,0,VALID,102.155,VALID,0,VALID,22.4667,VALID,66,VALID,0,
2010-07-10, 02:01:05,VALID,1009.84,VALID,0,VALID,102.17,VALID,0,VALID,22.4667,VALID,66,VALID,0,
2010-07-10, 02:02:05,VALID,1009.83,VALID,0,VALID,102.155,VALID,0,VALID,22.4878,VALID,66,VALID,0,
2010-07-10, 02:03:05,VALID,1009.84,VALID,0,VALID,102.124,VALID,0,VALID,22.4861,VALID,66,VALID,0,
2010-07-10, 02:04:05,VALID,1009.82,VALID,0,VALID,102.132,VALID,0,VALID,22.5056,VALID,66,VALID,0,
2010-07-10, 02:05:05,VALID,1009.81,VALID,0,VALID,102.132,VALID,0,VALID,22.5056,VALID,66,VALID,0,
2010-07-10, 02:06:05,VALID,1009.8,VALID,0,VALID,102.116,VALID,0,VALID,22.5056,VALID,66,VALID,0,
2010-07-10, 02:07:05,VALID,1009.77,VALID,0,VALID,102.124,VALID,0,VALID,22.4861,VALID,66,VALID,0,
2010-07-10, 02:08:05,VALID,1009.73,VALID,0,VALID,102.101,VALID,0,VALID,22.4861,VALID,66,VALID,0,
2010-07-10, 02:09:05,VALID,1009.74,VALID,0,VALID,102.124,VALID,0,VALID,22.4861,VALID,66,VALID,0,
2010-07-10, 02:10:05,VALID,1009.71,VALID,0,VALID,102.116,VALID,0,VALID,22.4861,VALID,66,VALID,0,
2010-07-10, 02:11:05,VALID,1009.67,VALID,0,VALID,102.109,VALID,0,VALID,22.4861,VALID,66,VALID,0,
2010-07-10, 02:12:05,VALID,1009.66,VALID,0,VALID,102.116,VALID,0,VALID,22.4861,VALID,66,VALID,0,
2010-07-10, 02:13:05,VALID,1009.68,VALID,0,VALID,102.124,VALID,0,VALID,22.4667,VALID,66,VALID,0,
2010-07-10, 02:14:05,VALID,1009.65,VALID,0,VALID,102.101,VALID,0,VALID,22.4667,VALID,66,VALID,0,
2010-07-10, 02:15:05,VALID,1009.63,VALID,0,VALID,102.124,VALID,0,VALID,22.4878,VALID,66,VALID,0,
2010-07-10, 02:16:05,VALID,1009.59,VALID,0,VALID,102.109,VALID,0,VALID,22.4861,VALID,66,VALID,0,
2010-07-10, 02:17:05,VALID,1009.6,VALID,0,VALID,102.078,VALID,0,VALID,22.4861,VALID,66,VALID,0,
2010-07-10, 02:18:05,VALID,1009.56,VALID,0,VALID,102.063,VALID,0,VALID,22.5056,VALID,66,VALID,0,
2010-07-10, 02:19:05,VALID,1009.52,VALID,0,VALID,102.101,VALID,0,VALID,22.4861,VALID,66,VALID,0,
2010-07-10, 02:20:05,VALID,1009.53,VALID,0,VALID,102.109,VALID,0,VALID,22.4861,VALID,66,VALID,0,
2010-07-10, 02:21:05,VALID,1009.5,VALID,0,VALID,102.109,VALID,0,VALID,22.4861,VALID,66,VALID,0,
2010-07-10, 02:22:05,VALID,1009.51,VALID,0,VALID,102.132,VALID,0,VALID,22.4667,VALID,66,VALID,0,
2010-07-10, 02:23:05,VALID,1009.53,VALID,0,VALID,102.116,VALID,0,VALID,22.4667,VALID,66,VALID,0,
2010-07-10, 02:24:05,VALID,1009.52,VALID,0,VALID,102.101,VALID,0,VALID,22.4667,VALID,66,VALID,0,
2010-07-10, 02:25:05,VALID,1009.54,VALID,0,VALID,102.101,VALID,0,VALID,22.4684,VALID,66,VALID,0,
2010-07-10, 02:26:05,VALID,1009.54,VALID,0,VALID,102.124,VALID,0,VALID,22.4472,VALID,66,VALID,0,
2010-07-10, 02:27:05,VALID,1009.55,VALID,0,VALID,102.109,VALID,0,VALID,22.4472,VALID,66,VALID,0,
2010-07-10, 02:28:05,VALID,1009.57,VALID,0,VALID,102.109,VALID,0,VALID,22.4472,VALID,66,VALID,0,
2010-07-10, 02:29:05,VALID,1009.57,VALID,0,VALID,102.109,VALID,0,VALID,22.4472,VALID,66,VALID,0,
2010-07-10, 02:30:05,VALID,1009.55,VALID,0,VALID,102.101,VALID,0,VALID,22.4667,VALID,66,VALID,0,
2010-07-10, 02:31:05,VALID,1009.57,VALID,0,VALID,102.086,VALID,0,VALID,22.4667,VALID,109,VALID,0,
2010-07-10, 02:32:05,VALID,1009.56,VALID,0,VALID,102.078,VALID,0,VALID,22.4861,VALID,85,VALID,0,
2010-07-10, 02:33:05,VALID,1009.55,VALID,0,VALID,102.033,VALID,0,VALID,22.5251,VALID,97,VALID,0,
2010-07-10, 02:34:05,VALID,1009.55,VALID,0,VALID,102.033,VALID,0.105969,VALID,22.5251,VALID,124,VALID,0,
2010-07-10, 02:35:05,VALID,1009.52,VALID,0,VALID,102.048,VALID,0.105969,VALID,22.5234,VALID,121,VALID,0,
2010-07-10, 02:36:05,VALID,1009.54,VALID,0,VALID,102.071,VALID,0.105969,VALID,22.5251,VALID,119,VALID,0,
2010-07-10, 02:37:04,VALID,1009.54,VALID,0,VALID,102.116,VALID,0.105969,VALID,22.5056,VALID,118,VALID,0.439063,
2010-07-10, 02:38:04,VALID,1009.56,VALID,0,VALID,102.101,VALID,0.105969,VALID,22.5039,VALID,119,VALID,0.276953,
2010-07-10, 02:39:04,VALID,1009.57,VALID,0,VALID,102.094,VALID,0.105969,VALID,22.5251,VALID,107,VALID,0.508594,
2010-07-10, 02:40:04,VALID,1009.6,VALID,0,VALID,102.101,VALID,0.105969,VALID,22.5251,VALID,79,VALID,0.464844,
2010-07-10, 02:41:04,VALID,1009.61,VALID,0,VALID,102.139,VALID,0.105969,VALID,22.4844,VALID,58,VALID,0.571094,
2010-07-10, 02:42:04,VALID,1009.63,VALID,0,VALID,102.147,VALID,0,VALID,22.5056,VALID,58,VALID,0.421094,
2010-07-10, 02:43:04,VALID,1009.68,VALID,0,VALID,102.162,VALID,0,VALID,22.4844,VALID,100,VALID,0.689062,
2010-07-10, 02:44:04,VALID,1009.67,VALID,0,VALID,102.162,VALID,0.105969,VALID,22.4844,VALID,109,VALID,0.663281,
2010-07-10, 02:45:04,VALID,1009.69,VALID,0,VALID,102.162,VALID,0.105969,VALID,22.4844,VALID,103,VALID,0.744141,
2010-07-10, 02:46:04,VALID,1009.71,VALID,0,VALID,102.155,VALID,0,VALID,22.465,VALID,95,VALID,1.02031,
2010-07-10, 02:47:04,VALID,1009.69,VALID,0,VALID,102.185,VALID,0,VALID,22.5056,VALID,84,VALID,0.672266,
2010-07-10, 02:48:04,VALID,1009.67,VALID,0,VALID,102.193,VALID,0,VALID,22.4844,VALID,81,VALID,1.10078,
2010-07-10, 02:49:04,VALID,1009.67,VALID,0,VALID,102.193,VALID,0,VALID,22.4861,VALID,88,VALID,0.666406,
2010-07-10, 02:50:04,VALID,1009.66,VALID,0,VALID,102.17,VALID,0.105969,VALID,22.5056,VALID,90,VALID,0.591406,
2010-07-10, 02:51:04,VALID,1009.66,VALID,0,VALID,102.185,VALID,0.105969,VALID,22.465,VALID,88,VALID,0.551953,
2010-07-10, 02:52:04,VALID,1009.63,VALID,0,VALID,102.2,VALID,0,VALID,22.4861,VALID,80,VALID,0.507422,
2010-07-10, 02:53:04,VALID,1009.62,VALID,0,VALID,102.193,VALID,0.105969,VALID,22.465,VALID,79,VALID,0.626172,
2010-07-10, 02:54:04,VALID,1009.6,VALID,0,VALID,102.231,VALID,0,VALID,22.4861,VALID,58,VALID,0.862891,
2010-07-10, 02:55:04,VALID,1009.56,VALID,0,VALID,102.216,VALID,0.105969,VALID,22.4455,VALID,89,VALID,0.101953,
2010-07-10, 02:56:04,VALID,1009.56,VALID,0,VALID,102.231,VALID,0.105969,VALID,22.4667,VALID,89,VALID,0,
2010-07-10, 02:57:04,VALID,1009.53,VALID,0,VALID,102.238,VALID,0.105969,VALID,22.4455,VALID,89,VALID,0.0925781,
2010-07-10, 02:58:04,VALID,1009.56,VALID,0,VALID,102.246,VALID,0.105969,VALID,22.4455,VALID,78,VALID,0.350781,
2010-07-10, 02:59:04,VALID,1009.56,VALID,0,VALID,102.238,VALID,0.105969,VALID,22.4472,VALID,78,VALID,0.0367187,
2010-07-10, 03:00:04,VALID,1009.55,VALID,0,VALID,102.246,VALID,0,VALID,22.4472,VALID,93,VALID,0.370313,
2010-07-10, 03:01:04,VALID,1009.55,VALID,0,VALID,102.254,VALID,0.105969,VALID,22.4065,VALID,107,VALID,0.696094,
2010-07-10, 03:02:04,VALID,1009.56,VALID,0,VALID,102.261,VALID,0.105969,VALID,22.4277,VALID,107,VALID,0.695703,
2010-07-10, 03:03:04,VALID,1009.53,VALID,0,VALID,102.254,VALID,0,VALID,22.4277,VALID,94,VALID,0.474219,
2010-07-10, 03:04:04,VALID,1009.51,VALID,0,VALID,102.269,VALID,0,VALID,22.3887,VALID,93,VALID,0.358594,
2010-07-10, 03:05:04,VALID,1009.48,VALID,0,VALID,102.261,VALID,0,VALID,22.4099,VALID,80,VALID,0.668359,
2010-07-10, 03:06:04,VALID,1009.45,VALID,0,VALID,102.284,VALID,0,VALID,22.3887,VALID,81,VALID,0.233203,
2010-07-10, 03:07:04,VALID,1009.47,VALID,0,VALID,102.307,VALID,0,VALID,22.3904,VALID,81,VALID,0,
2010-07-10, 03:08:04,VALID,1009.47,VALID,0,VALID,102.277,VALID,0,VALID,22.3498,VALID,81,VALID,0.219922,
2010-07-10, 03:09:04,VALID,1009.48,VALID,0,VALID,102.292,VALID,0,VALID,22.3498,VALID,81,VALID,0,
2010-07-10, 03:10:04,VALID,1009.5,VALID,0,VALID,102.284,VALID,0,VALID,22.3515,VALID,81,VALID,0,
2010-07-10, 03:11:04,VALID,1009.52,VALID,0,VALID,102.299,VALID,0,VALID,22.3303,VALID,81,VALID,0,
2010-07-10, 03:12:04,VALID,1009.53,VALID,0,VALID,102.292,VALID,0,VALID,22.3515,VALID,81,VALID,0,
2010-07-10, 03:13:04,VALID,1009.56,VALID,0,VALID,102.292,VALID,0,VALID,22.332,VALID,81,VALID,0.0160156,
2010-07-10, 03:14:04,VALID,1009.58,VALID,0,VALID,102.299,VALID,0,VALID,22.2914,VALID,81,VALID,0.375391,
2010-07-10, 03:15:04,VALID,1009.55,VALID,0,VALID,102.284,VALID,0,VALID,22.3125,VALID,81,VALID,0.21875,
2010-07-10, 03:16:04,VALID,1009.52,VALID,0,VALID,102.299,VALID,0,VALID,22.293,VALID,81,VALID,0.305078,
2010-07-10, 03:17:04,VALID,1009.53,VALID,0,VALID,102.292,VALID,0,VALID,22.2736,VALID,81,VALID,0.427734,
2010-07-10, 03:18:04,VALID,1009.51,VALID,0,VALID,102.292,VALID,0,VALID,22.293,VALID,102,VALID,0.537109,
2010-07-10, 03:19:04,VALID,1009.51,VALID,0,VALID,102.277,VALID,0.105969,VALID,22.2702,VALID,115,VALID,0.425781,
2010-07-10, 03:20:04,VALID,1009.5,VALID,0,VALID,102.307,VALID,0.105969,VALID,22.2507,VALID,115,VALID,0.428906,
2010-07-10, 03:21:04,VALID,1009.5,VALID,0,VALID,102.322,VALID,0.105969,VALID,22.2312,VALID,115,VALID,0.137891,
2010-07-10, 03:22:04,VALID,1009.52,VALID,0,VALID,102.338,VALID,0.105969,VALID,22.2118,VALID,124,VALID,0.0695312,
2010-07-10, 03:23:04,VALID,1009.51,VALID,0,VALID,102.315,VALID,0.105969,VALID,22.2329,VALID,124,VALID,0,
2010-07-10, 03:24:04,VALID,1009.54,VALID,0,VALID,102.299,VALID,0,VALID,22.1923,VALID,124,VALID,0,
2010-07-10, 03:25:04,VALID,1009.53,VALID,0,VALID,102.322,VALID,0.105969,VALID,22.2118,VALID,124,VALID,0,
2010-07-10, 03:26:04,VALID,1009.55,VALID,0,VALID,102.292,VALID,0.105969,VALID,22.1923,VALID,123,VALID,0,
2010-07-10, 03:27:04,VALID,1009.53,VALID,0,VALID,102.292,VALID,0.105969,VALID,22.1923,VALID,123,VALID,0,
2010-07-10, 03:28:04,VALID,1009.53,VALID,0,VALID,102.315,VALID,0.105969,VALID,22.194,VALID,123,VALID,0,
2010-07-10, 03:29:04,VALID,1009.55,VALID,0,VALID,102.284,VALID,0.105969,VALID,22.2134,VALID,76,VALID,0,
2010-07-10, 03:30:04,VALID,1009.55,VALID,0,VALID,102.277,VALID,0.105969,VALID,22.1923,VALID,75,VALID,0,
2010-07-10, 03:31:04,VALID,1009.57,VALID,0,VALID,102.238,VALID,0.105969,VALID,22.2118,VALID,75,VALID,0,
2010-07-10, 03:32:04,VALID,1009.57,VALID,0,VALID,102.254,VALID,0.105969,VALID,22.2329,VALID,75,VALID,0,
2010-07-10, 03:33:04,VALID,1009.54,VALID,0,VALID,102.261,VALID,0.105969,VALID,22.2329,VALID,75,VALID,0,
2010-07-10, 03:34:04,VALID,1009.56,VALID,0,VALID,102.261,VALID,0,VALID,22.2151,VALID,75,VALID,0,
2010-07-10, 03:35:04,VALID,1009.56,VALID,0,VALID,102.238,VALID,0,VALID,22.194,VALID,75,VALID,0,
2010-07-10, 03:36:04,VALID,1009.56,VALID,0,VALID,102.246,VALID,0,VALID,22.2346,VALID,75,VALID,0,
2010-07-10, 03:37:04,VALID,1009.56,VALID,0,VALID,102.254,VALID,0,VALID,22.194,VALID,75,VALID,0,
2010-07-10, 03:38:04,VALID,1009.53,VALID,0,VALID,102.254,VALID,0,VALID,22.2134,VALID,75,VALID,0,
2010-07-10, 03:39:04,VALID,1009.52,VALID,0,VALID,102.269,VALID,0,VALID,22.2134,VALID,75,VALID,0,
2010-07-10, 03:40:04,VALID,1009.52,VALID,0,VALID,102.261,VALID,0,VALID,22.194,VALID,75,VALID,0,
2010-07-10, 03:41:04,VALID,1009.48,VALID,0,VALID,102.246,VALID,0,VALID,22.194,VALID,75,VALID,0,
2010-07-10, 03:42:04,VALID,1009.47,VALID,0,VALID,102.231,VALID,0,VALID,22.2134,VALID,75,VALID,0,
2010-07-10, 03:43:04,VALID,1009.48,VALID,0,VALID,102.261,VALID,0,VALID,22.194,VALID,75,VALID,0,
2010-07-10, 03:44:04,VALID,1009.48,VALID,0,VALID,102.231,VALID,0,VALID,22.194,VALID,75,VALID,0,
2010-07-10, 03:45:04,VALID,1009.48,VALID,0,VALID,102.238,VALID,0,VALID,22.2134,VALID,75,VALID,0,
2010-07-10, 03:46:04,VALID,1009.49,VALID,0,VALID,102.231,VALID,0,VALID,22.2134,VALID,75,VALID,0,
2010-07-10, 03:47:04,VALID,1009.48,VALID,0,VALID,102.223,VALID,0,VALID,22.2134,VALID,75,VALID,0,